| time (UTC) | temp C | wind direction | speed KPH | gust KPH | rain 1hr cm | rain 24hr cm | rain mn cm | humidity % | barometer mb |
| 20260906064301 | 15 | 134 | 4.8 | 8.0 | 0.00 | 0.13 | 0.00 | 1 | 1035.8 |
| 20260906063800 | 15 | 117 | 6.4 | 8.0 | 0.00 | 0.13 | 0.00 | 1 | 1035.7 |
| 20260906063302 | 16 | 106 | 3.2 | 6.4 | 0.00 | 0.13 | 0.00 | 1 | 1035.7 |
| 20260906062801 | 16 | 138 | 0.0 | 1.6 | 0.00 | 0.13 | 0.00 | 1 | 1035.7 |
| 20260906062301 | 15 | 283 | 0.0 | 0.0 | 0.00 | 0.13 | 0.00 | 1 | 1035.7 |
| 20260906061801 | 15 | 292 | 0.0 | 1.6 | 0.00 | 0.13 | 0.00 | 1 | 1035.6 |
| 20260906061301 | 15 | 292 | 0.0 | 1.6 | 0.00 | 0.13 | 0.00 | 1 | 1035.6 |
| 20260906060801 | 15 | 292 | 0.0 | 1.6 | 0.00 | 0.13 | 0.00 | 1 | 1035.5 |
| 20260906060301 | 15 | 289 | 0.0 | 1.6 | 0.00 | 0.13 | 0.00 | 1 | 1035.5 |
| 20260906055801 | 15 | 289 | 0.0 | 0.0 | 0.00 | 0.13 | 0.00 | 1 | 1035.5 |
| 20260906055300 | 15 | 289 | 0.0 | 0.0 | 0.00 | 0.13 | 0.00 | 1 | 1035.4 |
| 20260906054800 | 14 | 144 | 0.0 | 0.0 | 0.00 | 0.13 | 0.00 | 1 | 1035.4 |
| 20260906054301 | 14 | 144 | 0.0 | 0.0 | 0.00 | 0.13 | 0.00 | 1 | 1035.5 |
| 20260906053801 | 13 | 144 | 0.0 | 0.0 | 0.00 | 0.13 | 0.00 | 1 | 1035.4 |
| 20260906053300 | 13 | 144 | 0.0 | 1.6 | 0.00 | 0.13 | 0.00 | 1 | 1035.4 |
| 20260906052801 | 13 | 144 | 0.0 | 3.2 | 0.00 | 0.13 | 0.00 | 1 | 1035.4 |
| 20260906052305 | 13 | 144 | 1.6 | 3.2 | 0.00 | 0.13 | 0.00 | 1 | 1035.4 |
| 20260906051802 | 13 | 278 | 0.0 | 1.6 | 0.00 | 0.13 | 0.00 | 1 | 1035.2 |
| 20260906051301 | 13 | 271 | 0.0 | 1.6 | 0.00 | 0.13 | 0.00 | 1 | 1035.4 |
| 20260906050801 | 13 | 227 | 0.0 | 0.0 | 0.00 | 0.13 | 0.00 | 1 | 1035.2 |
| 20260906050301 | 13 | 221 | 0.0 | 0.0 | 0.00 | 0.13 | 0.00 | 1 | 1035.2 |
| 20260906045801 | 13 | 220 | 0.0 | 0.0 | 0.00 | 0.13 | 0.00 | 1 | 1035.2 |
| 20260906045305 | 13 | 221 | 0.0 | 0.0 | 0.00 | 0.13 | 0.00 | 1 | 1035.1 |
| 20260906044800 | 13 | 220 | 0.0 | 3.2 | 0.00 | 0.13 | 0.00 | 1 | 1035.1 |
| 20260906044301 | 13 | 220 | 1.6 | 3.2 | 0.00 | 0.13 | 0.00 | 1 | 1035.1 |
| 20260906043801 | 13 | 276 | 0.0 | 0.0 | 0.00 | 0.13 | 0.00 | 1 | 1035.2 |
| 20260906043300 | 13 | 276 | 0.0 | 0.0 | 0.00 | 0.13 | 0.00 | 1 | 1035.2 |
| 20260906042801 | 13 | 276 | 0.0 | 0.0 | 0.00 | 0.13 | 0.00 | 1 | 1035.1 |
| 20260906042301 | 13 | 276 | 0.0 | 0.0 | 0.00 | 0.13 | 0.00 | 1 | 1035.0 |
| 20260906041801 | 13 | 276 | 0.0 | 0.0 | 0.00 | 0.13 | 0.00 | 1 | 1035.1 |
| 20260906041301 | 13 | 276 | 0.0 | 1.6 | 0.00 | 0.13 | 0.00 | 1 | 1035.1 |
| 20260906040801 | 13 | 282 | 0.0 | 1.6 | 0.00 | 0.13 | 0.00 | 1 | 1035.0 |
| 20260906040301 | 13 | 261 | 0.0 | 1.6 | 0.00 | 0.13 | 0.00 | 1 | 1035.1 |
| 20260906035801 | 13 | 261 | 0.0 | 0.0 | 0.00 | 0.13 | 0.00 | 1 | 1035.1 |
| 20260906035300 | 13 | 259 | 0.0 | 0.0 | 0.00 | 0.13 | 0.00 | 1 | 1035.0 |
| 20260906034801 | 13 | 259 | 0.0 | 0.0 | 0.00 | 0.13 | 0.00 | 1 | 1035.0 |
| 20260906034301 | 13 | 259 | 0.0 | 0.0 | 0.00 | 0.13 | 0.00 | 1 | 1035.0 |
| 20260906033801 | 13 | 259 | 0.0 | 0.0 | 0.00 | 0.13 | 0.00 | 1 | 1034.9 |
| 20260906033302 | 13 | 259 | 0.0 | 0.0 | 0.00 | 0.13 | 0.00 | 1 | 1034.9 |
| 20260906032802 | 13 | 259 | 0.0 | 0.0 | 0.00 | 0.13 | 0.00 | 1 | 1034.9 |
| 20260906032305 | 13 | 259 | 0.0 | 0.0 | 0.00 | 0.13 | 0.00 | 1 | 1034.9 |
| 20260906031802 | 13 | 259 | 0.0 | 0.0 | 0.00 | 0.13 | 0.00 | 1 | 1034.8 |
| 20260906031301 | 13 | 259 | 0.0 | 1.6 | 0.00 | 0.13 | 0.00 | 1 | 1034.9 |
| 20260906030801 | 13 | 259 | 0.0 | 1.6 | 0.00 | 0.13 | 0.00 | 1 | 1034.7 |
| 20260906030301 | 13 | 254 | 0.0 | 1.6 | 0.00 | 0.13 | 0.00 | 1 | 1034.7 |
| 20260906025801 | 13 | 212 | 0.0 | 1.6 | 0.00 | 0.13 | 0.00 | 1 | 1034.8 |
| 20260906025301 | 13 | 14 | 0.0 | 0.0 | 0.00 | 0.13 | 0.00 | 1 | 1034.7 |
| 20260906024800 | 13 | 14 | 0.0 | 1.6 | 0.00 | 0.13 | 0.00 | 1 | 1034.7 |
| 20260906024301 | 13 | 14 | 0.0 | 1.6 | 0.00 | 0.13 | 0.00 | 1 | 1034.7 |
| 20260906023801 | 13 | 151 | 0.0 | 1.6 | 0.00 | 0.13 | 0.00 | 1 | 1034.8 |
| 20260906023301 | 13 | 137 | 0.0 | 1.6 | 0.00 | 0.13 | 0.00 | 1 | 1034.7 |
| 20260906022803 | 13 | 103 | 0.0 | 1.6 | 0.00 | 0.13 | 0.00 | 1 | 1034.7 |
| 20260906022300 | 13 | 96 | 0.0 | 0.0 | 0.00 | 0.13 | 0.00 | 1 | 1034.7 |
| 20260906021802 | 13 | 212 | 0.0 | 0.0 | 0.00 | 0.13 | 0.00 | 1 | 1034.8 |
| 20260906021301 | 14 | 212 | 0.0 | 0.0 | 0.00 | 0.13 | 0.00 | 1 | 1034.8 |
| 20260906020801 | 14 | 212 | 0.0 | 0.0 | 0.00 | 0.13 | 0.00 | 1 | 1034.8 |
| 20260906020301 | 14 | 241 | 0.0 | 0.0 | 0.00 | 0.13 | 0.00 | 1 | 1034.7 |
| 20260906015801 | 14 | 241 | 0.0 | 0.0 | 0.00 | 0.13 | 0.00 | 1 | 1034.8 |
| 20260906015305 | 14 | 241 | 0.0 | 0.0 | 0.00 | 0.13 | 0.00 | 1 | 1034.9 |
| 20260906014800 | 14 | 241 | 0.0 | 1.6 | 0.00 | 0.13 | 0.00 | 1 | 1034.8 |
| 20260906014301 | 14 | 241 | 0.0 | 1.6 | 0.00 | 0.13 | 0.00 | 1 | 1034.9 |
| 20260906013801 | 14 | 241 | 0.0 | 0.0 | 0.00 | 0.13 | 0.00 | 1 | 1034.8 |
| 20260906013300 | 14 | 241 | 0.0 | 0.0 | 0.00 | 0.13 | 0.00 | 1 | 1034.8 |
| 20260906012801 | 14 | 240 | 0.0 | 0.0 | 0.00 | 0.13 | 0.00 | 1 | 1034.8 |
| 20260906012305 | 14 | 241 | 0.0 | 0.0 | 0.00 | 0.13 | 0.00 | 1 | 1034.7 |
| 20260906011802 | 14 | 240 | 0.0 | 0.0 | 0.00 | 0.13 | 0.00 | 1 | 1034.8 |
| 20260906011303 | 14 | 241 | 0.0 | 0.0 | 0.00 | 0.13 | 0.00 | 1 | 1034.8 |
| 20260906010801 | 14 | 240 | 0.0 | 0.0 | 0.00 | 0.13 | 0.00 | 1 | 1034.8 |
| 20260906010301 | 14 | 241 | 0.0 | 0.0 | 0.00 | 0.13 | 0.00 | 1 | 1034.9 |
| 20260906005802 | 14 | 241 | 0.0 | 0.0 | 0.00 | 0.13 | 0.00 | 1 | 1034.8 |
| 20260906005301 | 14 | 240 | 0.0 | 0.0 | 0.00 | 0.13 | 0.00 | 1 | 1034.7 |
| 20260906004801 | 14 | 240 | 0.0 | 0.0 | 0.00 | 0.13 | 0.00 | 1 | 1034.7 |
| 20260906004300 | 14 | 240 | 0.0 | 0.0 | 0.00 | 0.13 | 0.00 | 1 | 1034.7 |
| 20260906003801 | 14 | 240 | 0.0 | 0.0 | 0.00 | 0.13 | 0.00 | 1 | 1034.7 |
| 20260906003301 | 14 | 241 | 0.0 | 0.0 | 0.00 | 0.13 | 0.00 | 1 | 1034.7 |
| 20260906002800 | 14 | 241 | 0.0 | 0.0 | 0.00 | 0.13 | 0.00 | 1 | 1034.7 |
| 20260906002300 | 14 | 241 | 0.0 | 0.0 | 0.00 | 0.13 | 0.00 | 1 | 1034.7 |
| 20260906001800 | 14 | 241 | 0.0 | 0.0 | 0.00 | 0.13 | 0.00 | 1 | 1034.7 |
| 20260906001301 | 15 | 206 | 0.0 | 0.0 | 0.00 | 0.13 | 0.00 | 1 | 1034.7 |
| 20260906000802 | 15 | 206 | 0.0 | 0.0 | 0.00 | 0.13 | 0.00 | 1 | 1034.7 |
| 20260906000303 | 15 | 206 | 0.0 | 0.0 | 0.00 | 0.13 | 0.00 | 1 | 1034.7 |
| 20260905235803 | 15 | 310 | 0.0 | 0.0 | 0.00 | 0.13 | 0.00 | 1 | 1034.8 |
| 20260905235301 | 15 | 310 | 0.0 | 0.0 | 0.00 | 0.13 | 0.00 | 1 | 1034.8 |
| 20260905234801 | 15 | 310 | 0.0 | 0.0 | 0.00 | 0.13 | 0.00 | 1 | 1034.7 |
| 20260905234301 | 14 | 310 | 0.0 | 0.0 | 0.00 | 0.13 | 0.00 | 1 | 1034.7 |
| 20260905233800 | 14 | 310 | 0.0 | 0.0 | 0.00 | 0.13 | 0.00 | 1 | 1034.7 |
| 20260905233301 | 14 | 310 | 0.0 | 1.6 | 0.00 | 0.13 | 0.00 | 1 | 1034.7 |
| 20260905232801 | 14 | 309 | 0.0 | 1.6 | 0.00 | 0.13 | 0.00 | 1 | 1034.8 |
| 20260905232301 | 14 | 159 | 0.0 | 0.0 | 0.00 | 0.13 | 0.00 | 1 | 1034.7 |
| 20260905231801 | 15 | 204 | 0.0 | 0.0 | 0.00 | 0.13 | 0.00 | 1 | 1034.7 |
| 20260905231300 | 15 | 283 | 0.0 | 0.0 | 0.00 | 0.13 | 0.00 | 1 | 1034.7 |
| 20260905230801 | 15 | 283 | 0.0 | 0.0 | 0.00 | 0.13 | 0.00 | 1 | 1034.7 |
| 20260905230302 | 15 | 283 | 0.0 | 0.0 | 0.00 | 0.13 | 0.00 | 1 | 1034.6 |
| 20260905225801 | 14 | 283 | 0.0 | 3.2 | 0.00 | 0.13 | 0.00 | 1 | 1034.7 |
| 20260905225305 | 15 | 283 | 0.0 | 3.2 | 0.00 | 0.13 | 0.00 | 1 | 1034.6 |
| 20260905224801 | 15 | 278 | 0.0 | 0.0 | 0.00 | 0.13 | 0.00 | 1 | 1034.7 |
| 20260905224301 | 15 | 278 | 0.0 | 0.0 | 0.00 | 0.13 | 0.00 | 1 | 1034.4 |
| 20260905223801 | 15 | 278 | 0.0 | 0.0 | 0.00 | 0.13 | 0.00 | 1 | 1034.6 |
| 20260905223301 | 15 | 278 | 0.0 | 0.0 | 0.00 | 0.13 | 0.00 | 1 | 1034.7 |
| 20260905222801 | 15 | 276 | 0.0 | 0.0 | 0.00 | 0.13 | 0.00 | 1 | 1034.7 |
| 20260905222300 | 15 | 306 | 0.0 | 0.0 | 0.00 | 0.13 | 0.00 | 1 | 1034.8 |
| 20260905221801 | 15 | 321 | 0.0 | 1.6 | 0.00 | 0.13 | 0.00 | 1 | 1034.7 |
| 20260905221300 | 15 | 321 | 0.0 | 1.6 | 0.00 | 0.13 | 0.00 | 1 | 1034.7 |
| 20260905220800 | 14 | 321 | 0.0 | 1.6 | 0.00 | 0.13 | 0.00 | 1 | 1034.7 |
| 20260905220300 | 14 | 336 | 0.0 | 1.6 | 0.00 | 0.13 | 0.00 | 1 | 1034.4 |
| 20260905215802 | 14 | 16 | 0.0 | 0.0 | 0.00 | 0.13 | 0.13 | 1 | 1034.4 |
| 20260905215305 | 14 | 16 | 0.0 | 0.0 | 0.00 | 0.13 | 0.13 | 1 | 1034.4 |
| 20260905214803 | 14 | 16 | 0.0 | 1.6 | 0.00 | 0.13 | 0.13 | 1 | 1034.3 |
| 20260905214301 | 14 | 16 | 0.0 | 1.6 | 0.00 | 0.13 | 0.13 | 1 | 1034.3 |
| 20260905213800 | 14 | 243 | 0.0 | 1.6 | 0.00 | 0.13 | 0.13 | 1 | 1034.3 |
| 20260905213300 | 15 | 285 | 0.0 | 0.0 | 0.00 | 0.13 | 0.13 | 1 | 1034.3 |
| 20260905212800 | 15 | 285 | 0.0 | 3.2 | 0.00 | 0.13 | 0.13 | 1 | 1034.3 |
| 20260905212302 | 15 | 285 | 0.0 | 3.2 | 0.00 | 0.13 | 0.13 | 6 | 1034.2 |
| 20260905211800 | 15 | 37 | 0.0 | 0.0 | 0.00 | 0.13 | 0.13 | 1 | 1034.1 |
| 20260905211259 | 15 | 37 | 0.0 | 0.0 | 0.00 | 0.13 | 0.13 | 1 | 1034.2 |
| 20260905210759 | 15 | 89 | 0.0 | 0.0 | 0.00 | 0.13 | 0.13 | 1 | 1034.2 |
| 20260905210301 | 15 | 89 | 0.0 | 3.2 | 0.00 | 0.13 | 0.13 | 5 | 1034.1 |
| 20260905205802 | 15 | 89 | 0.0 | 3.2 | 0.00 | 0.13 | 0.13 | 15 | 1034.1 |
| 20260905205300 | 15 | 125 | 1.6 | 3.2 | 0.00 | 0.13 | 0.13 | 15 | 1034.1 |
| 20260905204800 | 15 | 310 | 0.0 | 4.8 | 0.00 | 0.13 | 0.13 | 18 | 1034.0 |
| 20260905204259 | 15 | 299 | 1.6 | 4.8 | 0.00 | 0.13 | 0.13 | 21 | 1034.0 |
| 20260905203759 | 15 | 299 | 3.2 | 6.4 | 0.00 | 0.13 | 0.13 | 16 | 1034.0 |
| 20260905203259 | 15 | 326 | 0.0 | 6.4 | 0.00 | 0.13 | 0.13 | 16 | 1034.2 |
| 20260905202800 | 15 | 338 | 0.0 | 3.2 | 0.00 | 0.13 | 0.13 | 13 | 1034.1 |
| 20260905202300 | 15 | 293 | 0.0 | 3.2 | 0.00 | 0.13 | 0.13 | 13 | 1034.1 |
| 20260905201800 | 15 | 14 | 0.0 | 6.4 | 0.00 | 0.13 | 0.13 | 17 | 1034.1 |
| 20260905201258 | 15 | 355 | 0.0 | 6.4 | 0.00 | 0.13 | 0.13 | 16 | 1034.1 |
| 20260905200759 | 16 | 276 | 3.2 | 6.4 | 0.00 | 0.13 | 0.13 | 17 | 1034.1 |
| 20260905200258 | 16 | 326 | 3.2 | 6.4 | 0.00 | 0.13 | 0.13 | 19 | 1034.1 |
| 20260905195758 | 16 | 23 | 0.0 | 4.8 | 0.00 | 0.13 | 0.13 | 19 | 1034.0 |
| 20260905195259 | 16 | 296 | 0.0 | 4.8 | 0.00 | 0.13 | 0.13 | 22 | 1034.1 |
| 20260905194759 | 16 | 27 | 0.0 | 1.6 | 0.00 | 0.13 | 0.13 | 19 | 1033.9 |
| 20260905194300 | 16 | 357 | 0.0 | 1.6 | 0.00 | 0.13 | 0.13 | 20 | 1034.0 |
| 20260905193758 | 16 | 283 | 0.0 | 1.6 | 0.00 | 0.13 | 0.13 | 18 | 1033.9 |
| 20260905193259 | 16 | 283 | 0.0 | 1.6 | 0.00 | 0.13 | 0.13 | 19 | 1033.9 |
| 20260905192757 | 16 | 282 | 0.0 | 0.0 | 0.00 | 0.13 | 0.13 | 19 | 1033.9 |
| 20260905192258 | 16 | 282 | 0.0 | 0.0 | 0.00 | 0.13 | 0.13 | 20 | 1033.8 |
| 20260905191757 | 16 | 282 | 0.0 | 0.0 | 0.00 | 0.13 | 0.13 | 22 | 1033.9 |
| 20260905191258 | 16 | 282 | 0.0 | 1.6 | 0.00 | 0.13 | 0.13 | 23 | 1033.8 |
| 20260905190757 | 16 | 282 | 0.0 | 3.2 | 0.00 | 0.13 | 0.13 | 28 | 1033.8 |
| 20260905190258 | 16 | 278 | 1.6 | 3.2 | 0.00 | 0.13 | 0.13 | 33 | 1033.8 |
| 20260905185756 | 16 | 279 | 0.0 | 3.2 | 0.00 | 0.13 | 0.13 | 37 | 1033.7 |
| 20260905185258 | 16 | 309 | 0.0 | 3.2 | 0.00 | 0.13 | 0.13 | 33 | 1033.7 |
| 20260905184757 | 16 | 290 | 0.0 | 4.8 | 0.00 | 0.13 | 0.13 | 32 | 1033.6 |
| 20260905184257 | 16 | 303 | 0.0 | 4.8 | 0.00 | 0.13 | 0.13 | 32 | 1033.5 |
| 20260905183757 | 16 | 305 | 0.0 | 3.2 | 0.00 | 0.13 | 0.13 | 34 | 1033.4 |
| 20260905183256 | 16 | 334 | 0.0 | 3.2 | 0.00 | 0.13 | 0.13 | 29 | 1033.1 |
| 20260905182756 | 16 | 303 | 0.0 | 1.6 | 0.00 | 0.13 | 0.13 | 27 | 1033.1 |
| 20260905182257 | 16 | 303 | 0.0 | 1.6 | 0.00 | 0.13 | 0.13 | 31 | 1033.1 |
| 20260905181758 | 16 | 299 | 0.0 | 1.6 | 0.00 | 0.13 | 0.13 | 35 | 1033.0 |
| 20260905181256 | 16 | 299 | 0.0 | 4.8 | 0.00 | 0.13 | 0.13 | 34 | 1033.1 |
| 20260905180755 | 16 | 279 | 3.2 | 6.4 | 0.00 | 0.13 | 0.13 | 36 | 1033.0 |
| 20260905180257 | 16 | 286 | 3.2 | 6.4 | 0.00 | 0.13 | 0.13 | 40 | 1032.9 |
| 20260905175756 | 17 | 295 | 0.0 | 1.6 | 0.00 | 0.13 | 0.13 | 46 | 1032.9 |
| 20260905175257 | 17 | 312 | 0.0 | 1.6 | 0.00 | 0.13 | 0.13 | 45 | 1032.9 |
| 20260905174757 | 17 | 333 | 0.0 | 1.6 | 0.00 | 0.13 | 0.13 | 43 | 1032.9 |
| 20260905174256 | 17 | 309 | 0.0 | 4.8 | 0.00 | 0.13 | 0.13 | 43 | 1032.8 |
| 20260905173755 | 16 | 289 | 0.0 | 4.8 | 0.00 | 0.13 | 0.13 | 42 | 1032.9 |
| 20260905173255 | 17 | 307 | 0.0 | 3.2 | 0.00 | 0.13 | 0.13 | 48 | 1032.8 |
| 20260905172757 | 17 | 292 | 0.0 | 3.2 | 0.00 | 0.13 | 0.13 | 52 | 1032.8 |
| 20260905172255 | 17 | 10 | 0.0 | 1.6 | 0.00 | 0.13 | 0.13 | 55 | 1032.8 |
| 20260905171755 | 17 | 266 | 0.0 | 0.0 | 0.00 | 0.13 | 0.13 | 53 | 1032.8 |
| 20260905171255 | 17 | 266 | 0.0 | 3.2 | 0.00 | 0.13 | 0.13 | 55 | 1032.8 |
| 20260905170754 | 17 | 266 | 1.6 | 3.2 | 0.00 | 0.13 | 0.13 | 57 | 1032.8 |
| 20260905170254 | 17 | 21 | 0.0 | 4.8 | 0.00 | 0.13 | 0.13 | 57 | 1032.7 |
| 20260905165755 | 17 | 296 | 3.2 | 6.4 | 0.00 | 0.13 | 0.13 | 55 | 1032.8 |
| 20260905165256 | 17 | 312 | 0.0 | 9.7 | 0.00 | 0.13 | 0.13 | 56 | 1032.7 |
| 20260905164756 | 18 | 281 | 3.2 | 9.7 | 0.00 | 0.13 | 0.13 | 61 | 1032.8 |
| 20260905164254 | 18 | 123 | 1.6 | 3.2 | 0.00 | 0.13 | 0.13 | 65 | 1032.7 |
| 20260905163754 | 18 | 241 | 0.0 | 3.2 | 0.00 | 0.13 | 0.13 | 64 | 1032.7 |
| 20260905163254 | 18 | 241 | 0.0 | 6.4 | 0.00 | 0.13 | 0.13 | 66 | 1032.7 |
| 20260905162754 | 18 | 109 | 0.0 | 6.4 | 0.00 | 0.13 | 0.13 | 67 | 1032.6 |
| 20260905162253 | 18 | 16 | 1.6 | 3.2 | 0.00 | 0.13 | 0.13 | 67 | 1032.5 |
| 20260905161754 | 18 | 296 | 0.0 | 3.2 | 0.00 | 0.13 | 0.13 | 67 | 1032.5 |
| 20260905161254 | 18 | 269 | 0.0 | 4.8 | 0.00 | 0.13 | 0.13 | 67 | 1032.5 |
| 20260905160754 | 18 | 320 | 0.0 | 4.8 | 0.00 | 0.13 | 0.13 | 67 | 1032.5 |
| 20260905160252 | 19 | 245 | 0.0 | 9.7 | 0.00 | 0.13 | 0.13 | 67 | 1032.3 |
| 20260905155754 | 19 | 235 | 3.2 | 9.7 | 0.00 | 0.13 | 0.13 | 67 | 1032.4 |
| 20260905155253 | 18 | 228 | 6.4 | 9.7 | 0.00 | 0.13 | 0.13 | 67 | 1032.4 |
| 20260905154753 | 18 | 199 | 0.0 | 11.3 | 0.03 | 0.13 | 0.13 | 67 | 1032.4 |
| 20260905154253 | 18 | 290 | 3.2 | 14.5 | 0.03 | 0.13 | 0.13 | 66 | 1032.4 |
| 20260905153752 | 18 | 295 | 4.8 | 16.1 | 0.03 | 0.13 | 0.13 | 67 | 1032.4 |
| 20260905153253 | 18 | 39 | 8.0 | 16.1 | 0.03 | 0.13 | 0.13 | 66 | 1032.4 |
| 20260905152754 | 18 | 0 | 4.8 | 17.7 | 0.03 | 0.13 | 0.13 | 65 | 1032.5 |
| 20260905152254 | 17 | 30 | 9.7 | 17.7 | 0.03 | 0.13 | 0.13 | 64 | 1032.6 |
| 20260905151752 | 17 | 310 | 4.8 | 16.1 | 0.03 | 0.13 | 0.13 | 56 | 1032.6 |
| 20260905151252 | 17 | 329 | 6.4 | 14.5 | 0.03 | 0.13 | 0.13 | 55 | 1032.7 |
| 20260905150752 | 17 | 314 | 6.4 | 11.3 | 0.03 | 0.13 | 0.13 | 56 | 1032.7 |
| 20260905150252 | 17 | 4 | 4.8 | 11.3 | 0.03 | 0.13 | 0.13 | 52 | 1032.6 |
| 20260905145752 | 17 | 21 | 3.2 | 17.7 | 0.03 | 0.10 | 0.13 | 48 | 1032.6 |
| 20260905145252 | 17 | 307 | 1.6 | 29.0 | 0.03 | 0.10 | 0.13 | 51 | 1032.6 |
| 20260905144753 | 17 | 288 | 12.9 | 32.2 | 0.00 | 0.10 | 0.10 | 59 | 1032.3 |
| 20260905144252 | 18 | 283 | 24.1 | 35.4 | 0.00 | 0.10 | 0.10 | 62 | 1032.2 |
| 20260905143751 | 18 | 293 | 17.7 | 35.4 | 0.00 | 0.10 | 0.10 | 65 | 1032.0 |
| 20260905143251 | 18 | 286 | 6.4 | 14.5 | 0.00 | 0.10 | 0.10 | 63 | 1032.0 |
| 20260905142751 | 18 | 327 | 4.8 | 16.1 | 0.00 | 0.10 | 0.10 | 60 | 1031.7 |
| 20260905142252 | 18 | 261 | 6.4 | 29.0 | 0.00 | 0.10 | 0.10 | 59 | 1031.9 |
| 20260905141751 | 18 | 288 | 11.3 | 29.0 | 0.00 | 0.10 | 0.10 | 61 | 1031.9 |
| 20260905141251 | 19 | 272 | 19.3 | 27.4 | 0.00 | 0.10 | 0.10 | 67 | 1031.6 |
| 20260905140751 | 20 | 233 | 20.9 | 32.2 | 0.00 | 0.10 | 0.10 | 67 | 1031.5 |
| 20260905140250 | 20 | 288 | 14.5 | 32.2 | 0.00 | 0.10 | 0.10 | 66 | 1031.3 |
| 20260905135750 | 20 | 266 | 17.7 | 32.2 | 0.00 | 0.10 | 0.10 | 66 | 1031.0 |
| 20260905135252 | 20 | 282 | 19.3 | 33.8 | 0.00 | 0.10 | 0.10 | 66 | 1031.0 |
| 20260905134750 | 21 | 279 | 11.3 | 33.8 | 0.00 | 0.10 | 0.10 | 65 | 1030.9 |
| 20260905134251 | 21 | 300 | 14.5 | 29.0 | 0.00 | 0.10 | 0.10 | 64 | 1030.8 |
| 20260905133750 | 21 | 268 | 14.5 | 30.6 | 0.00 | 0.10 | 0.10 | 63 | 1030.7 |
| 20260905133250 | 22 | 254 | 17.7 | 30.6 | 0.00 | 0.10 | 0.10 | 63 | 1030.7 |
| 20260905132750 | 22 | 261 | 11.3 | 19.3 | 0.00 | 0.10 | 0.10 | 61 | 1030.6 |
| 20260905132250 | 22 | 292 | 12.9 | 24.1 | 0.00 | 0.10 | 0.10 | 62 | 1030.3 |
| 20260905131751 | 22 | 292 | 9.7 | 24.1 | 0.00 | 0.10 | 0.10 | 61 | 1030.4 |
| 20260905131250 | 22 | 290 | 14.5 | 29.0 | 0.00 | 0.10 | 0.10 | 59 | 1030.3 |
| 20260905130750 | 22 | 286 | 11.3 | 29.0 | 0.00 | 0.10 | 0.10 | 58 | 1030.3 |
| 20260905130251 | 22 | 285 | 17.7 | 27.4 | 0.00 | 0.10 | 0.10 | 58 | 1030.2 |
| 20260905125750 | 23 | 281 | 22.5 | 27.4 | 0.00 | 0.10 | 0.10 | 58 | 1030.2 |
| 20260905125250 | 23 | 276 | 14.5 | 32.2 | 0.00 | 0.10 | 0.10 | 57 | 1030.1 |
| 20260905124749 | 23 | 274 | 19.3 | 35.4 | 0.00 | 0.10 | 0.10 | 55 | 1030.0 |
| 20260905124249 | 23 | 275 | 24.1 | 35.4 | 0.00 | 0.10 | 0.10 | 56 | 1030.2 |
| 20260905123749 | 23 | 247 | 20.9 | 29.0 | 0.00 | 0.10 | 0.10 | 54 | 1030.2 |
| 20260905123248 | 23 | 282 | 20.9 | 29.0 | 0.00 | 0.10 | 0.10 | 53 | 1030.2 |
| 20260905122750 | 23 | 272 | 16.1 | 27.4 | 0.00 | 0.10 | 0.10 | 55 | 1030.1 |
| 20260905122250 | 23 | 281 | 20.9 | 27.4 | 0.00 | 0.10 | 0.10 | 52 | 1030.0 |
| 20260905121748 | 23 | 279 | 17.7 | 25.7 | 0.00 | 0.10 | 0.10 | 55 | 1030.2 |
| 20260905121251 | 23 | 255 | 14.5 | 24.1 | 0.00 | 0.10 | 0.10 | 53 | 1030.2 |
| 20260905120749 | 23 | 262 | 16.1 | 27.4 | 0.00 | 0.10 | 0.10 | 54 | 1030.2 |
| 20260905120248 | 23 | 278 | 16.1 | 27.4 | 0.00 | 0.10 | 0.10 | 55 | 1030.2 |
| 20260905115748 | 23 | 259 | 14.5 | 22.5 | 0.00 | 0.10 | 0.10 | 56 | 1030.2 |
| 20260905115249 | 23 | 288 | 9.7 | 22.5 | 0.00 | 0.10 | 0.10 | 54 | 1030.4 |
| 20260905114749 | 23 | 271 | 14.5 | 22.5 | 0.00 | 0.10 | 0.10 | 52 | 1030.4 |
| 20260905114248 | 23 | 271 | 3.2 | 16.1 | 0.00 | 0.10 | 0.10 | 55 | 1030.6 |
| 20260905113750 | 23 | 195 | 3.2 | 22.5 | 0.00 | 0.10 | 0.10 | 58 | 1030.4 |
| 20260905113247 | 23 | 290 | 6.4 | 22.5 | 0.00 | 0.10 | 0.10 | 59 | 1030.6 |
| 20260905112748 | 23 | 329 | 3.2 | 16.1 | 0.00 | 0.10 | 0.10 | 58 | 1030.4 |
| 20260905112247 | 22 | 47 | 4.8 | 14.5 | 0.00 | 0.10 | 0.10 | 64 | 1030.6 |
| 20260905111748 | 22 | 133 | 3.2 | 14.5 | 0.00 | 0.10 | 0.10 | 66 | 1030.7 |
| 20260905111247 | 21 | 100 | 8.0 | 11.3 | 0.00 | 0.10 | 0.10 | 66 | 1030.7 |
| 20260905110747 | 21 | 90 | 8.0 | 11.3 | 0.00 | 0.10 | 0.10 | 67 | 1030.9 |
| 20260905110247 | 20 | 130 | 3.2 | 8.0 | 0.00 | 0.10 | 0.10 | 66 | 1030.9 |
| 20260905105746 | 20 | 123 | 6.4 | 8.0 | 0.00 | 0.10 | 0.10 | 65 | 1030.9 |
| 20260905105249 | 20 | 103 | 4.8 | 11.3 | 0.00 | 0.10 | 0.10 | 64 | 1030.9 |
| 20260905104749 | 20 | 103 | 4.8 | 16.1 | 0.00 | 0.10 | 0.10 | 64 | 1031.0 |
| 20260905104249 | 20 | 120 | 8.0 | 16.1 | 0.00 | 0.10 | 0.10 | 63 | 1031.0 |
| 20260905103746 | 20 | 116 | 6.4 | 11.3 | 0.00 | 0.10 | 0.10 | 60 | 1031.0 |
| 20260905103246 | 19 | 120 | 4.8 | 11.3 | 0.00 | 0.10 | 0.10 | 60 | 1030.9 |
| 20260905102746 | 19 | 116 | 8.0 | 14.5 | 0.00 | 0.10 | 0.10 | 59 | 1031.0 |
| 20260905102246 | 19 | 134 | 6.4 | 14.5 | 0.00 | 0.10 | 0.10 | 62 | 1031.1 |
| 20260905101748 | 18 | 107 | 4.8 | 14.5 | 0.00 | 0.10 | 0.10 | 63 | 1031.1 |
| 20260905101247 | 18 | 76 | 6.4 | 14.5 | 0.00 | 0.10 | 0.10 | 61 | 1031.2 |
| 20260905100746 | 18 | 127 | 9.7 | 16.1 | 0.00 | 0.10 | 0.10 | 58 | 1031.2 |
| 20260905100246 | 18 | 114 | 9.7 | 16.1 | 0.00 | 0.10 | 0.10 | 61 | 1031.2 |
| 20260905095746 | 18 | 107 | 6.4 | 9.7 | 0.00 | 0.10 | 0.10 | 44 | 1031.3 |
| 20260905095246 | 18 | 120 | 8.0 | 9.7 | 0.00 | 0.10 | 0.10 | 49 | 1031.4 |
| 20260905094746 | 18 | 106 | 4.8 | 9.7 | 0.00 | 0.10 | 0.10 | 48 | 1031.5 |
| 20260905094247 | 17 | 137 | 6.4 | 8.0 | 0.00 | 0.10 | 0.10 | 42 | 1031.4 |
| 20260905093745 | 17 | 97 | 1.6 | 4.8 | 0.00 | 0.10 | 0.10 | 42 | 1031.5 |
| 20260905093244 | 17 | 118 | 3.2 | 4.8 | 0.00 | 0.10 | 0.10 | 38 | 1031.6 |
| 20260905092745 | 17 | 180 | 1.6 | 4.8 | 0.00 | 0.10 | 0.10 | 47 | 1031.5 |
| 20260905092246 | 17 | 107 | 0.0 | 4.8 | 0.00 | 0.10 | 0.10 | 48 | 1031.6 |
| 20260905091744 | 17 | 97 | 0.0 | 4.8 | 0.00 | 0.10 | 0.10 | 40 | 1031.4 |
| 20260905091245 | 17 | 120 | 0.0 | 3.2 | 0.00 | 0.10 | 0.10 | 34 | 1031.3 |
| 20260905090745 | 17 | 82 | 0.0 | 3.2 | 0.00 | 0.10 | 0.10 | 39 | 1031.3 |
| 20260905090245 | 17 | 85 | 0.0 | 3.2 | 0.00 | 0.10 | 0.10 | 40 | 1031.4 |
| 20260905085744 | 17 | 144 | 0.0 | 3.2 | 0.00 | 0.10 | 0.10 | 44 | 1031.3 |
| 20260905085244 | 17 | 209 | 0.0 | 3.2 | 0.00 | 0.10 | 0.10 | 37 | 1031.4 |
| 20260905084745 | 17 | 185 | 1.6 | 6.4 | 0.03 | 0.10 | 0.10 | 39 | 1031.2 |
| 20260905084245 | 16 | 223 | 1.6 | 8.0 | 0.05 | 0.10 | 0.10 | 40 | 1031.3 |
| 20260905083745 | 16 | 161 | 4.8 | 8.0 | 0.10 | 0.10 | 0.10 | 36 | 1031.2 |
| 20260905083244 | 16 | 103 | 0.0 | 4.8 | 0.10 | 0.10 | 0.10 | 32 | 1031.2 |
| 20260905082744 | 16 | 262 | 1.6 | 6.4 | 0.10 | 0.10 | 0.10 | 31 | 1031.1 |
| 20260905082243 | 16 | 226 | 3.2 | 17.7 | 0.10 | 0.10 | 0.10 | 39 | 1031.1 |
| 20260905081743 | 16 | 286 | 6.4 | 20.9 | 0.10 | 0.10 | 0.10 | 52 | 1030.9 |
| 20260905081244 | 16 | 279 | 6.4 | 25.7 | 0.10 | 0.10 | 0.10 | 49 | 1031.0 |
| 20260905080744 | 16 | 331 | 8.0 | 25.7 | 0.10 | 0.10 | 0.10 | 40 | 1031.0 |
| 20260905080245 | 16 | 296 | 11.3 | 17.7 | 0.10 | 0.10 | 0.10 | 43 | 1030.9 |
| 20260905075743 | 16 | 278 | 9.7 | 27.4 | 0.10 | 0.00 | 0.10 | 31 | 1030.9 |
| 20260905075243 | 16 | 286 | 14.5 | 27.4 | 0.10 | 0.00 | 0.10 | 35 | 1030.9 |
| 20260905074743 | 16 | 296 | 17.7 | 29.0 | 0.08 | 0.00 | 0.08 | 45 | 1030.9 |
| 20260905074243 | 17 | 290 | 16.1 | 29.0 | 0.05 | 0.00 | 0.05 | 62 | 1030.4 |
| 20260905073743 | 17 | 274 | 17.7 | 32.2 | 0.00 | 0.00 | 0.00 | 67 | 1030.2 |
| 20260905073242 | 17 | 310 | 14.5 | 32.2 | 0.00 | 0.00 | 0.00 | 67 | 1030.0 |
| 20260905072743 | 17 | 299 | 14.5 | 30.6 | 0.00 | 0.00 | 0.00 | 67 | 1029.8 |
| 20260905072241 | 18 | 306 | 20.9 | 30.6 | 0.00 | 0.00 | 0.00 | 67 | 1029.6 |
| 20260905071743 | 18 | 278 | 11.3 | 24.1 | 0.00 | 0.00 | 0.00 | 67 | 1029.5 |
| 20260905071242 | 18 | 8 | 9.7 | 24.1 | 0.00 | 0.00 | 0.00 | 66 | 1029.4 |
| 20260905070742 | 18 | 333 | 4.8 | 20.9 | 0.00 | 0.00 | 0.00 | 64 | 1029.5 |
| 20260905070242 | 18 | 337 | 6.4 | 20.9 | 0.00 | 0.00 | 0.00 | 62 | 1029.4 |
| 20260905065742 | 18 | 307 | 1.6 | 16.1 | 0.00 | 0.00 | 0.00 | 59 | 1029.2 |
| 20260905065242 | 18 | 305 | 6.4 | 19.3 | 0.00 | 0.00 | 0.00 | 57 | 1029.2 |
| 20260905064743 | 18 | 278 | 12.9 | 19.3 | 0.00 | 0.00 | 0.00 | 54 | 1028.9 |